Weather History for Sheboygan, WI

Change the Weather History Date:

Friday, March 8, 2013

  Actual Average Record
Temperature  
Mean Temperature 18 °F -  
Max Temperature 34 °F 40 °F 73 °F (1987)
Min Temperature 3 °F 23 °F 0 °F (1967)
Degree Days  
Heating Degree Days 46    
Moisture  
Dew Point 18 °F    
Average Humidity 89    
Maximum Humidity 100    
Minimum Humidity 73    
Precipitation  
Precipitation 0.00 in - - ()
Sea Level Pressure  
Sea Level Pressure 30.42 in    
Wind  
Wind Speed 3 mph (South)    
Max Wind Speed 12 mph    
Max Gust Speed -    
Visibility 6 miles    
Events Fog    
Averages and records for this station are not official NWS values.
T = Trace of Precipitation, MM = Missing Value Source: NWS Daily Summary

Daily Weather History Graph

Daily Weather History Graph

Search for Another Location

Airport:

Trip Planner

Search our weather history database for the weather conditions in past years. The results will help you decide how hot, cold, wet, or windy it might be!

Date:

Astronomy

Mar. 08, 2013 Rise Set
Actual Time 6:15 AM CST 5:49 PM CST
Civil Twilight 5:46 AM CST 6:17 PM CST
Nautical Twilight 5:13 AM CST 6:51 PM CST
Astronomical Twilight 4:40 AM CST 7:24 PM CST
Moon 4:05 AM CST (3/8) 2:39 PM CST (3/8)
Length of Visible Light 12h 31m
Length of Day
11h 33m
Waning Crescent, 11% of the Moon is Illuminated
Mar 8
Waning Crescent
Mar 11
New
Mar 19
First Quarter
Mar 27
Full
Apr 2
Last Quarter

Hourly Weather History & Observations

Time (CST) Temp. Windchill Dew Point Humidity Pressure Visibility Wind Dir Wind Speed Gust Speed Precip Events Conditions
12:53 AM 7.0 °F - 6.1 °F 96% 30.48 in 10.0 mi Calm Calm - N/A   Clear
1:53 AM 7.0 °F - 5.0 °F 92% 30.48 in 10.0 mi Calm Calm - N/A   Clear
2:28 AM 6.8 °F - 3.2 °F 85% 30.44 in 10.0 mi Calm Calm - N/A   Mostly Cloudy
2:53 AM 8.1 °F -2.0 °F 5.0 °F 87% 30.49 in 10.0 mi West 5.8 mph - N/A   Overcast
3:46 AM 8.6 °F - 6.8 °F 92% 30.45 in 10.0 mi Calm Calm - N/A   Scattered Clouds
3:53 AM 7.0 °F - 5.0 °F 92% 30.49 in 10.0 mi Calm Calm - N/A   Partly Cloudy
4:53 AM 3.9 °F - 3.0 °F 96% 30.49 in 10.0 mi Calm Calm - N/A   Clear
5:53 AM 6.1 °F - 1.9 °F 83% 30.51 in 5.0 mi Calm Calm - N/A   Clear
6:53 AM 5.0 °F - 3.0 °F 92% 30.52 in 8.0 mi Calm Calm - N/A   Clear
7:53 AM 9.0 °F - 9.0 °F 100% 30.52 in 8.0 mi Calm Calm - N/A   Clear
8:53 AM 17.1 °F - 16.0 °F 96% 30.51 in 10.0 mi Calm Calm - N/A   Clear
9:53 AM 25.0 °F 20.7 °F 19.9 °F 81% 30.51 in 10.0 mi SSW 3.5 mph - N/A   Clear
10:53 AM 32.0 °F 23.0 °F 24.1 °F 73% 30.50 in 10.0 mi South 11.5 mph - N/A   Clear
11:53 AM 32.0 °F 24.2 °F 25.0 °F 75% 30.49 in 10.0 mi South 9.2 mph - N/A   Clear
12:53 PM 33.1 °F 24.9 °F 26.1 °F 75% 30.47 in 10.0 mi South 10.4 mph - N/A   Clear
1:53 PM 33.1 °F 25.5 °F 26.1 °F 75% 30.45 in 10.0 mi South 9.2 mph - N/A   Clear
2:53 PM 34.0 °F 27.2 °F 27.0 °F 75% 30.43 in 10.0 mi SSE 8.1 mph - N/A   Clear
3:53 PM 34.0 °F 26.6 °F 27.0 °F 75% 30.42 in 10.0 mi South 9.2 mph - N/A   Clear
4:53 PM 33.1 °F 25.5 °F 27.0 °F 78% 30.42 in 10.0 mi SSE 9.2 mph - N/A   Clear
5:53 PM 30.9 °F 23.5 °F 27.0 °F 85% 30.42 in 10.0 mi SSE 8.1 mph - N/A   Clear
6:53 PM 28.9 °F 21.9 °F 26.1 °F 89% 30.43 in 10.0 mi South 6.9 mph - N/A   Clear
7:53 PM 28.9 °F 23.9 °F 27.0 °F 92% 30.40 in 9.0 mi SSE 4.6 mph - N/A   Clear
8:53 PM 25.0 °F - 23.0 °F 92% 30.40 in 7.0 mi Calm Calm - N/A   Clear
9:24 PM 21.2 °F 16.4 °F 21.2 °F 100% 30.35 in 1.5 mi SSW 3.5 mph - N/A   Clear
9:33 PM 21.2 °F - 21.2 °F 100% 30.35 in 0.5 mi Calm Calm - N/A Fog Light Freezing Fog
9:53 PM 26.1 °F - 23.0 °F 88% 30.37 in 0.8 mi Calm Calm - N/A   Clear
9:59 PM 24.8 °F - 24.8 °F 100% 30.34 in 2.0 mi Calm Calm - N/A   Clear
10:02 PM 24.8 °F - 24.8 °F 100% 30.33 in 0.8 mi Calm Calm - N/A   Clear
10:11 PM 21.2 °F 16.4 °F 21.2 °F 100% 30.33 in 0.2 mi SSW 3.5 mph - N/A Fog Light Freezing Fog
10:39 PM 24.8 °F 20.5 °F 21.2 °F 86% 30.32 in 1.0 mi South 3.5 mph - N/A   Mist
10:53 PM 21.9 °F 15.7 °F 21.9 °F 100% 30.35 in 0.5 mi South 4.6 mph - N/A Fog Light Freezing Fog
11:06 PM 23.0 °F 15.8 °F 21.2 °F 93% 30.32 in 1.8 mi SSW 5.8 mph - N/A   Clear
11:18 PM 21.2 °F - 21.2 °F 100% 30.31 in 0.5 mi Calm Calm - N/A Fog Light Freezing Fog
11:31 PM 23.0 °F 17.0 °F 21.2 °F 93% 30.31 in 1.5 mi South 4.6 mph - N/A   Clear
11:48 PM 21.2 °F 16.4 °F 19.4 °F 93% 30.30 in 2.0 mi South 3.5 mph - N/A   Clear
11:53 PM 21.9 °F 17.2 °F 19.9 °F 92% 30.33 in 1.2 mi South 3.5 mph - N/A   Clear